Location: T�bingen+AIT
(48.5342°N, 9.0700°E)
Time: 20:27:45
(UTC+02:00)

ATLAS 2AS CENTAUR R/B - Pass Details

Date: 14 September 2017
Orbit: 906 x 1306 km, 63.7° (Epoch: 18 September)

Event Time Altitude Azimuth Distance (km) Brightness Sun altitude
Rises 21:47:28 0° 308° (NW) 4,298 7.4 -21.0°
Reaches altitude 10° 21:50:44 10° 318° (NW) 3,331 6.3 -21.5°
Maximum altitude 21:57:56 33° 20° (NNE) 2,032 4.2 -22.5°
Enters shadow 22:02:42 19° 71° (ENE) 2,646 4.4 -23.1°
